TimeEDT,TemperatureF,Dew PointF,Humidity,Sea Level PressureIn,VisibilityMPH,Wind Direction,Wind SpeedMPH,Gust SpeedMPH,PrecipitationIn,Events,Conditions,WindDirDegrees,DateUTC
12:54 AM,48.0,37.9,68,30.32,10.0,Calm,Calm,-,N/A,,Clear,0,2013-10-09 04:54:00
1:54 AM,45.0,39.0,80,30.32,10.0,Calm,Calm,-,N/A,,Clear,0,2013-10-09 05:54:00
2:54 AM,46.0,37.9,73,30.32,10.0,East,3.5,-,N/A,,Clear,100,2013-10-09 06:54:00
3:54 AM,46.9,37.9,71,30.30,10.0,Calm,Calm,-,N/A,,Clear,0,2013-10-09 07:54:00
4:54 AM,46.9,39.0,74,30.30,10.0,ESE,4.6,-,N/A,,Clear,110,2013-10-09 08:54:00
5:54 AM,46.0,37.9,73,30.32,10.0,ESE,3.5,-,N/A,,Clear,110,2013-10-09 09:54:00
6:54 AM,45.0,37.9,76,30.33,10.0,East,3.5,-,N/A,,Clear,100,2013-10-09 10:54:00
7:54 AM,44.1,39.0,82,30.34,10.0,East,3.5,-,N/A,,Clear,90,2013-10-09 11:54:00
8:54 AM,46.9,39.9,77,30.36,10.0,East,3.5,-,N/A,,Clear,100,2013-10-09 12:54:00
9:54 AM,51.1,39.9,66,30.38,10.0,ESE,8.1,-,N/A,,Clear,110,2013-10-09 13:54:00
10:54 AM,53.1,37.9,57,30.36,10.0,ESE,8.1,-,N/A,,Clear,120,2013-10-09 14:54:00
11:54 AM,54.0,37.9,55,30.37,10.0,Variable,6.9,-,N/A,,Clear,0,2013-10-09 15:54:00
12:54 PM,57.0,37.9,49,30.34,10.0,SE,6.9,-,N/A,,Clear,130,2013-10-09 16:54:00
1:54 PM,59.0,36.0,42,30.32,10.0,East,5.8,-,N/A,,Clear,80,2013-10-09 17:54:00
2:54 PM,57.9,35.1,42,30.31,10.0,Variable,6.9,-,N/A,,Clear,0,2013-10-09 18:54:00
3:54 PM,57.0,36.0,45,30.31,10.0,Variable,4.6,-,N/A,,Clear,0,2013-10-09 19:54:00
4:54 PM,55.0,34.0,45,30.31,10.0,Variable,4.6,-,N/A,,Clear,0,2013-10-09 20:54:00
5:54 PM,53.1,37.0,55,30.30,10.0,East,3.5,-,N/A,,Clear,90,2013-10-09 21:54:00
6:54 PM,51.1,36.0,56,30.31,10.0,East,4.6,-,N/A,,Clear,100,2013-10-09 22:54:00
7:54 PM,50.0,34.0,54,30.30,10.0,ENE,4.6,-,N/A,,Clear,70,2013-10-09 23:54:00
8:54 PM,48.0,35.1,61,30.31,10.0,East,3.5,-,N/A,,Clear,100,2013-10-10 00:54:00
9:54 PM,48.0,35.1,61,30.30,10.0,East,3.5,-,N/A,,Clear,100,2013-10-10 01:54:00
10:54 PM,46.9,36.0,66,30.30,10.0,ESE,3.5,-,N/A,,Clear,110,2013-10-10 02:54:00
11:54 PM,46.9,36.0,66,30.28,10.0,ESE,4.6,-,N/A,,Clear,120,2013-10-10 03:54:00